Tracking 22223 objects as of 26-Jan-2021
HD Live streaming from Space Station
objects crossing your sky now

AMC-7 (GE-7)

Track AMC-7 (GE-7) now!
AMC-7 (GE-7) is classified as:


NORAD ID: 26495
Int'l Code: 2000-054B
Perigee: 36,113.0 km
Apogee: 36,116.6 km
Inclination: 1.9 °
Period: 1,452.5 minutes
Semi major axis: 42485 km
RCS: 22.9975 m2 (large)
Launch date: September 14, 2000
Source: SOCIETE EUROPEENNE DES SATELLITES (SES)
Launch site: FRENCH GUIANA (FRGUI)

Cable programming; 24 C-band; CONUS, Alaska, Hawaii, Caribbean
aabbcc
Your satellite tracking list
Your tracking list is empty




NASA's NSSDC Master Catalog

Two Line Element Set (TLE):
1 26495U 00054B   21025.82494652 -.00000222  00000-0  00000-0 0  9992
2 26495   1.9077  92.9494 0000421 338.1401 157.2750  0.99137319 74455
Source of the keplerian elements: AFSPC